Theta_e
329 321 321 312 303 295 292 295 302 302 303 308 312 310 310 314 310 303 327 335 338 338 341 344 347 348 348 347 345 346 345 343 343 344 342 340 339 336 335 334 336 334 334 335 334 335 335 336 336
324 320 313 306 297 291 291 294 299 303 308 314 311 310 311 309 322 326 329 337 339 338 341 342 344 347 347 346 346 346 345 343 343 342 341 338 337 336 336 336 335 334 335 334 335 335 335 335 335
316 317 308 301 293 292 291 295 299 305 312 304 310 314 313 314 322 328 332 339 338 337 340 341 344 346 345 345 345 345 345 344 342 341 339 339 336 336 336 335 336 335 333 334 334 334 334 333 334
313 312 304 296 292 296 295 298 305 304 305 308 311 310 315 324 327 331 338 338 336 337 339 340 344 346 345 344 343 343 343 343 343 342 339 338 338 338 338 336 338 336 334 332 332 332 332 332 332
312 306 297 293 295 297 297 303 305 303 303 305 308 306 311 323 332 336 338 337 335 335 337 340 343 345 345 344 342 341 342 343 342 340 341 339 339 338 337 336 335 334 334 333 332 331 332 332 332
307 304 294 291 293 298 302 305 305 302 303 305 309 311 312 325 332 334 337 336 337 335 337 338 337 340 342 343 343 342 342 342 340 339 339 339 338 337 338 335 335 334 333 333 331 330 330 331 331
305 301 295 294 293 297 303 306 302 302 304 305 313 308 310 321 330 335 334 335 335 336 336 336 337 337 336 339 340 340 341 340 340 339 338 336 336 336 336 336 336 333 332 332 331 330 329 329 328
306 303 296 296 295 296 302 305 305 305 304 311 314 305 308 320 331 332 334 333 333 334 335 334 333 334 335 335 332 334 337 337 337 336 334 331 331 332 331 330 333 336 334 333 332 331 330 329 329
305 299 296 298 296 298 301 303 303 306 307 309 313 313 315 327 331 332 331 333 333 334 334 333 331 331 332 332 330 328 331 332 332 331 328 326 325 326 325 326 329 333 334 334 334 333 332 331 329
298 296 299 303 302 301 302 303 304 305 308 308 311 317 324 328 329 328 328 329 329 331 332 332 331 330 330 333 329 328 329 329 329 328 327 325 323 323 324 321 325 328 329 332 333 332 329 326 319
297 293 298 301 306 307 303 303 305 304 303 309 312 316 322 326 327 327 328 329 329 331 332 332 331 330 329 330 328 326 326 325 324 324 325 324 322 320 320 319 319 319 319 319 321 321 319 318 318
295 300 299 301 306 306 303 306 303 305 306 310 315 321 322 324 326 326 327 328 329 330 331 332 331 330 329 329 327 326 325 324 323 322 323 323 321 319 318 317 317 317 318 317 316 316 317 316 316
296 298 300 301 302 303 307 304 303 304 305 312 319 322 322 323 325 328 329 328 328 328 329 330 331 330 330 328 328 326 326 324 324 323 322 322 321 319 318 318 317 317 317 317 316 316 316 315 316
295 299 298 298 298 302 300 301 303 306 309 315 319 320 321 322 323 323 324 326 326 329 329 331 330 330 330 329 328 327 326 325 324 323 323 322 321 320 319 318 317 317 317 317 316 316 315 314 314
297 294 295 294 298 298 302 295 298 304 308 311 316 318 320 322 322 323 325 326 328 329 330 329 331 331 330 330 329 329 328 327 325 325 324 323 323 321 320 319 317 318 317 317 316 315 315 314 314
292 291 287 292 297 298 298 288 297 302 306 308 312 314 317 319 321 323 324 325 326 328 328 330 332 331 330 330 330 330 329 329 327 327 327 324 324 323 321 320 319 319 318 317 316 315 314 313 313
287 281 285 288 295 296 296 291 298 299 302 304 306 310 312 315 317 320 323 324 325 327 328 328 330 330 331 331 331 330 329 328 327 328 327 327 326 325 324 323 322 322 321 320 318 316 313 312 312
283 282 285 285 290 294 292 293 295 294 296 301 300 301 304 309 315 319 319 322 324 324 327 328 329 329 330 331 329 326 325 326 327 327 326 326 327 326 326 326 325 324 323 321 319 318 316 315 314
287 284 284 287 290 289 289 290 295 297 293 293 294 295 296 298 304 304 309 316 320 321 322 323 326 327 328 325 325 323 325 327 327 327 327 326 326 326 326 327 326 325 323 323 322 319 317 316 315
287 285 282 286 289 288 285 286 290 292 295 296 295 294 296 296 298 300 300 302 309 317 321 322 325 327 328 329 327 324 324 323 325 326 326 327 327 327 327 327 326 325 324 324 322 320 319 318 317
288 284 282 283 286 286 282 282 286 289 293 295 296 298 296 297 298 299 299 299 299 304 314 320 324 326 328 329 325 321 322 320 326 327 326 327 328 327 328 328 328 327 326 324 324 322 320 320 319
285 289 288 287 285 278 282 275 280 285 286 289 293 294 296 295 296 299 298 298 298 299 304 313 320 324 327 328 326 324 325 323 322 323 325 323 325 326 326 328 327 326 324 323 324 324 322 322 320
285 291 289 288 284 283 279 277 278 280 282 284 287 290 293 297 299 298 298 298 298 298 301 304 310 315 319 326 326 324 323 324 320 319 320 321 321 323 323 324 324 327 325 323 323 321 320 320 321
290 287 286 285 284 277 279 279 277 281 283 285 287 288 290 292 291 292 293 295 296 299 302 303 305 306 308 314 318 321 321 318 315 316 316 316 319 319 322 324 325 325 324 323 321 322 322 322 322
287 283 274 274 272 272 277 278 281 283 286 286 288 289 289 288 288 289 290 292 297 302 303 304 304 303 304 305 306 307 308 309 310 311 313 312 308 309 312 314 314 312 313 313 313 312 312 311 310
284 283 276 270 271 273 279 276 279 286 288 289 289 289 290 290 290 290 291 293 298 301 302 302 300 299 300 301 299 300 301 304 304 306 307 306 303 303 305 305 305 305 306 305 306 305 305 305 304
285 282 284 279 274 273 275 279 284 286 287 287 288 290 290 291 290 292 295 296 298 298 298 298 297 297 297 296 295 295 295 297 297 296 297 296 297 298 300 300 299 300 300 298 298 299 298 298 298
287 288 280 280 267 265 274 276 277 282 284 287 287 288 289 290 290 293 295 295 295 294 293 295 294 294 292 292 292 292 292 293 293 293 293 293 294 297 296 296 295 295 294 294 295 295 293 293 294
285 283 284 282 277 271 269 274 281 283 284 284 286 288 289 290 292 294 293 292 292 290 291 290 290 289 289 289 289 289 289 289 290 289 290 291 293 294 293 292 292 291 291 292 291 291 291 289 288
289 286 285 279 275 277 277 275 283 284 284 285 286 288 288 291 292 292 292 290 289 289 288 288 287 287 287 287 287 286 286 287 286 286 287 288 288 290 289 289 289 288 288 288 288 287 286 286 285
Wind_Speed
7 2 3 5 5 6 1 3 1 3 2 1 2 3 6 3 3 4 0 6 12 11 8 8 14 14 14 14 14 13 13 15 14 14 14 13 13 14 15 12 11 12 12 12 13 12 12 12 13
3 3 4 3 5 3 4 2 6 5 5 6 4 2 4 2 3 6 7 5 12 11 7 6 13 15 15 14 13 12 13 13 14 13 13 13 13 12 12 12 13 10 12 12 12 11 11 11 12
3 2 4 5 4 5 5 5 5 1 7 2 4 3 3 4 2 11 2 11 11 9 7 6 12 14 14 12 12 12 12 12 13 12 11 12 13 12 12 10 10 12 10 11 10 10 9 10 11
2 4 5 4 4 4 5 5 5 7 1 3 4 5 1 2 7 6 11 12 10 8 6 9 13 15 14 13 12 11 10 11 10 11 11 11 10 10 9 7 9 9 10 9 8 8 8 8 9
4 3 4 2 3 2 3 5 8 6 5 3 3 4 1 2 6 12 14 12 12 8 7 8 10 13 13 12 12 11 10 10 9 8 7 12 9 9 11 8 6 7 8 7 6 5 6 6 7
3 3 4 3 4 2 1 6 7 5 4 3 5 6 3 3 10 13 13 10 9 10 7 7 10 10 11 12 11 10 11 10 10 9 7 8 8 6 7 9 8 7 7 6 5 4 4 4 5
5 4 5 5 3 1 5 7 7 7 7 5 8 6 1 3 6 11 8 8 7 6 7 5 6 7 9 9 10 9 9 9 9 9 9 7 6 6 3 7 6 7 6 6 4 3 2 3 4
5 4 4 3 6 5 5 6 6 7 6 3 5 5 5 6 9 8 8 8 8 6 6 6 5 5 5 5 8 8 8 8 8 8 8 7 7 6 3 2 1 6 5 5 5 4 2 2 4
2 4 3 5 7 5 4 5 1 0 6 2 5 4 1 13 12 9 8 6 8 6 8 6 6 6 6 5 5 7 7 8 8 7 7 6 3 4 4 4 3 4 5 6 6 6 4 3 3
4 4 8 5 5 4 6 4 8 5 4 3 1 3 7 15 15 16 13 12 13 12 10 8 7 7 6 5 5 5 5 4 4 4 5 4 4 3 4 4 5 5 4 5 5 6 5 4 1
4 5 5 2 3 4 5 5 5 7 3 8 11 8 10 11 12 15 14 15 14 13 10 10 8 7 7 5 4 3 3 3 3 6 5 4 4 3 2 1 2 2 3 2 2 3 1 2 2
3 5 4 2 0 2 6 7 5 7 7 3 8 14 12 13 15 15 13 12 13 14 12 10 9 8 7 4 4 4 4 3 3 4 6 4 3 4 3 3 3 3 2 3 3 2 3 4 4
4 5 5 2 2 1 2 2 4 7 3 3 9 11 14 15 14 11 10 7 8 11 10 10 10 9 8 7 4 4 5 4 4 4 5 4 4 4 3 4 3 3 3 3 3 3 3 4 4
4 6 3 3 3 3 2 1 0 3 6 6 10 13 11 13 15 7 7 10 11 10 10 9 10 9 8 8 7 5 4 5 4 4 5 6 4 4 4 4 4 4 4 3 4 4 4 4 3
4 4 3 4 4 4 5 3 7 2 4 8 9 9 8 11 8 15 14 13 11 9 9 11 11 9 9 10 8 6 6 6 5 5 7 7 7 6 6 4 4 4 4 5 3 4 3 3 3
5 4 4 2 7 4 7 7 9 6 7 8 9 7 8 9 10 9 8 8 8 7 10 9 9 10 10 9 7 6 6 6 6 5 5 8 8 7 5 4 4 4 4 4 3 3 3 4 4
3 5 5 3 8 3 5 5 10 7 8 9 8 8 8 7 8 8 8 8 8 11 9 10 10 12 13 10 7 7 6 6 5 5 6 7 8 8 7 6 6 6 4 4 3 3 4 3 3
6 4 3 6 7 6 5 8 6 3 7 11 8 8 8 8 16 9 9 8 8 8 10 9 8 10 10 6 4 3 3 4 4 5 5 7 6 8 7 5 6 5 4 4 3 5 3 3 4
3 3 4 3 1 4 5 5 13 7 4 7 9 9 9 9 8 6 8 8 8 7 8 9 10 10 8 5 4 3 7 6 5 5 6 7 6 7 7 5 5 5 6 7 6 4 5 4 3
1 3 2 3 1 2 3 8 11 7 8 9 10 9 10 5 6 9 10 8 9 11 13 10 12 11 11 8 4 3 4 3 2 3 5 6 7 7 7 6 6 8 5 5 6 6 3 3 5
3 3 3 1 3 2 4 8 8 8 7 8 10 11 7 11 12 10 10 10 8 10 12 12 14 14 13 12 5 3 3 2 3 5 4 8 9 9 9 8 8 7 7 6 7 7 8 5 3
8 8 4 2 4 4 3 10 7 8 8 8 12 10 14 12 11 12 10 8 9 10 7 8 9 11 11 13 10 10 8 8 5 4 4 3 6 7 8 8 6 5 4 5 6 5 6 4 6
4 7 7 4 3 4 1 3 8 2 7 8 9 13 14 16 17 17 13 11 8 7 7 7 7 7 7 12 11 10 8 6 3 3 5 5 4 6 6 6 6 6 4 4 5 4 5 4 2
7 7 7 5 3 6 7 5 6 6 7 6 6 10 12 11 9 10 9 8 9 6 7 6 7 6 7 8 8 11 11 7 5 4 4 3 3 3 4 5 5 4 4 4 2 1 3 3 3
4 7 2 1 1 8 4 6 13 5 7 6 8 10 8 7 7 9 9 9 7 8 8 7 7 6 5 6 6 6 7 6 7 6 4 5 3 3 4 4 5 3 4 4 4 4 3 3 3
7 10 7 9 6 3 2 11 7 6 10 7 8 9 9 8 6 8 7 6 6 7 7 8 8 6 6 6 5 4 3 2 2 3 3 4 3 4 3 5 5 6 5 5 5 4 4 4 4
5 9 5 6 3 3 6 9 8 5 11 9 10 7 9 8 5 7 5 5 6 5 6 8 8 7 6 6 5 4 4 4 4 4 4 4 5 5 6 6 7 6 6 6 6 4 5 5 5
7 8 4 2 3 4 6 5 6 8 9 7 9 9 9 5 5 4 2 4 4 4 3 5 6 7 6 6 5 5 5 5 5 5 6 6 5 7 7 7 6 6 6 6 6 6 6 7 5
4 4 3 5 5 5 2 7 7 6 8 8 7 8 8 8 5 1 3 4 6 4 4 4 5 7 6 6 5 6 5 5 5 6 5 5 6 7 7 7 7 7 6 6 7 7 8 9 7
10 10 9 5 6 3 1 9 3 6 2 5 5 7 6 5 5 2 3 3 4 4 3 4 4 5 5 5 5 5 5 5 6 5 5 5 6 6 6 6 7 7 6 6 7 8 6 8 7
Wind_Direction
327 60 108 46 63 66 211 235 156 128 139 348 67 147 169 94 155 202 121 152 130 144 153 155 144 143 139 138 140 135 134 132 132 130 128 124 120 120 122 113 108 107 103 105 107 101 90 71 61
308 137 50 83 92 86 258 233 182 187 147 127 73 36 51 108 98 118 120 158 141 141 145 156 149 143 143 146 147 147 142 139 137 138 135 130 127 123 123 122 120 108 109 112 112 104 89 77 69
158 18 92 100 115 170 203 201 166 140 151 116 107 69 138 160 75 156 140 142 135 139 140 144 144 142 149 150 149 148 150 146 145 142 141 140 132 132 124 125 129 121 108 112 109 105 91 80 71
85 11 40 94 204 233 190 170 153 132 252 66 124 87 28 248 154 177 138 134 135 135 137 151 151 151 156 157 161 160 158 158 156 157 153 145 141 129 125 130 99 130 123 112 105 98 87 77 72
34 57 76 92 261 250 234 169 153 149 150 135 142 177 39 46 101 133 142 141 144 141 143 153 157 157 158 162 160 162 168 166 156 135 138 146 139 156 137 130 115 115 111 107 100 88 71 66 68
39 97 76 185 250 299 209 170 139 140 148 149 91 131 165 122 133 153 146 147 148 150 150 158 161 160 163 168 171 165 167 160 152 149 149 133 144 126 168 154 139 134 133 126 115 92 66 52 46
116 93 199 167 211 271 195 158 156 165 145 221 159 133 215 182 160 145 140 127 131 137 146 153 161 165 165 170 171 172 174 164 160 152 145 136 137 128 103 159 165 173 160 143 136 110 57 27 23
106 93 132 209 177 236 183 173 165 159 200 100 159 181 211 191 146 128 131 136 139 145 154 158 157 161 166 173 165 166 178 173 169 164 164 158 166 169 144 141 257 184 174 181 171 184 214 312 344
142 75 193 215 154 219 140 169 150 103 118 191 178 157 243 129 129 137 149 146 162 167 170 165 165 168 168 173 180 167 179 189 174 165 170 168 168 189 185 189 221 237 192 192 181 193 212 254 318
100 135 213 199 187 182 178 171 160 142 130 221 177 56 113 138 154 166 174 176 184 184 184 176 174 175 166 170 167 177 170 163 170 175 183 173 177 191 193 220 236 242 253 252 227 215 227 250 302
162 194 205 234 206 157 179 170 172 126 237 213 194 158 153 156 167 178 184 189 190 190 191 189 181 179 171 175 165 169 174 173 174 183 179 182 173 184 188 215 265 257 277 282 307 315 335 270 272
158 234 182 165 325 172 172 134 181 186 213 233 197 162 154 170 183 186 188 188 185 190 193 188 185 182 182 172 176 177 172 180 188 190 183 171 185 197 207 208 222 225 225 240 244 260 269 270 268
185 208 189 173 125 45 130 194 192 224 251 88 132 156 177 180 191 199 194 184 183 192 190 189 181 187 186 183 182 182 189 184 190 187 188 177 184 201 197 217 217 224 212 221 240 244 260 271 270
213 182 199 199 185 157 185 158 82 247 141 124 154 176 185 191 192 175 191 197 194 195 195 186 189 188 180 190 185 194 190 192 181 185 195 194 190 195 200 210 219 224 208 218 222 231 249 258 254
124 143 325 224 195 210 149 262 229 190 146 162 187 194 199 208 181 201 203 208 200 203 189 191 188 183 186 192 192 191 195 187 191 197 197 198 197 201 200 206 213 222 210 219 225 248 247 266 260
128 108 187 243 147 235 141 251 249 193 159 200 198 207 212 219 216 216 201 207 193 187 199 189 190 186 192 197 191 194 192 193 197 195 193 198 202 199 200 200 209 211 200 200 211 227 254 249 250
354 195 204 291 201 127 167 225 253 174 184 210 213 212 223 238 244 234 211 211 197 197 196 195 191 191 195 199 195 198 190 195 197 192 195 197 196 198 200 204 210 198 203 202 210 225 208 244 256
172 178 209 194 212 182 197 238 264 210 187 214 207 216 221 227 239 228 222 219 205 200 205 203 194 202 194 189 178 175 186 207 197 205 198 194 195 193 199 209 204 189 189 197 191 219 207 227 244
151 219 194 253 232 154 220 242 252 246 237 234 233 234 232 231 252 244 243 222 216 211 198 197 188 192 170 165 182 195 218 214 217 206 201 201 197 197 200 207 199 185 196 208 201 187 211 232 212
130 210 224 274 89 136 324 262 255 228 220 224 216 227 233 229 254 252 240 224 213 218 214 204 203 186 191 192 187 167 161 202 196 183 203 209 205 199 199 202 205 194 203 201 196 189 196 222 182
202 183 169 299 335 84 330 269 245 249 216 216 241 236 219 219 237 244 245 228 219 217 214 211 206 197 194 192 134 101 84 66 159 210 218 221 210 208 207 208 212 198 193 199 203 196 199 228 200
226 159 139 59 28 249 35 280 273 249 235 225 227 227 230 221 232 242 237 233 219 227 212 211 204 203 195 177 177 186 198 201 208 192 198 204 201 212 209 214 211 215 201 206 198 188 212 199 229
217 163 172 148 119 12 224 311 266 286 271 252 234 231 236 231 225 230 229 231 224 207 211 210 191 180 175 182 187 188 203 207 179 176 192 205 199 204 197 191 192 209 199 205 209 195 205 207 220
151 87 57 52 109 259 191 175 205 198 208 249 229 238 237 243 250 248 232 233 237 186 177 179 170 172 171 175 181 191 202 195 183 205 203 186 199 176 171 178 180 172 158 161 142 293 177 202 217
159 135 43 16 200 233 344 197 250 274 255 239 245 260 262 248 248 253 242 227 206 183 165 159 154 143 140 148 160 191 209 198 206 208 198 170 163 190 168 147 138 121 112 109 110 100 84 102 112
184 174 164 183 198 231 45 233 243 238 289 281 267 257 282 263 247 263 267 239 201 182 159 141 141 132 134 132 121 103 115 163 173 177 171 166 154 137 114 102 99 102 102 101 99 102 92 72 73
172 220 149 106 54 67 221 288 295 275 273 274 279 299 280 289 272 251 257 207 167 156 146 143 140 129 128 124 121 107 108 124 133 127 126 125 116 117 105 100 103 97 99 100 98 94 88 84 67
174 158 178 67 139 255 262 274 242 299 291 271 296 290 295 295 282 274 183 144 107 120 125 125 125 129 130 126 126 124 124 117 113 102 100 102 98 106 109 103 94 93 89 88 95 95 82 90 69
149 172 172 144 155 178 258 264 214 253 276 282 310 305 309 330 313 227 117 108 116 111 113 112 117 131 131 131 125 121 109 99 93 96 97 104 104 113 108 107 104 96 96 99 98 91 95 96 95
225 200 191 186 214 246 183 256 241 236 312 128 18 351 359 13 12 49 106 114 108 112 132 141 136 136 142 132 120 117 113 111 106 104 104 96 92 84 101 105 105 106 97 95 107 114 112 111 105